Change the Weather History Date:

Sunday, December 29, 2013

  Actual Average Record
Temperature  
Mean Temperature 20 °F -  
Max Temperature 39 °F 32 °F 66 °F (1984)
Min Temperature 1 °F 16 °F -4 °F (1963)
Degree Days  
Heating Degree Days 45    
Moisture  
Dew Point 12 °F    
Average Humidity 77    
Maximum Humidity 93    
Minimum Humidity 66    
Precipitation  
Precipitation 0.00 in - - ()
Sea Level Pressure  
Sea Level Pressure 30.11 in    
Wind  
Wind Speed 17 mph (NW)    
Max Wind Speed 26 mph    
Max Gust Speed 33 mph    
Visibility 10 miles    
Events Snow    
Averages and records for this station are not official NWS values.
T = Trace of Precipitation, MM = Missing Value Source: NWS Daily Summary

Daily Weather History Graph

Daily Weather History Graph

Search for Another Location

Airport or City:

Trip Planner

Search our weather history database for the weather conditions in past years. The results will help you decide how hot, cold, wet, or windy it might be!

Date:

Astronomy

Dec. 29, 2013 Rise Set
Actual Time 7:30 AM CST 4:43 PM CST
Civil Twilight 6:58 AM CST 5:14 PM CST
Nautical Twilight 6:24 AM CST 5:49 PM CST
Astronomical Twilight 5:50 AM CST 6:23 PM CST
Moon 4:13 AM CST (12/29) 2:22 PM CST (12/29)
Length of Visible Light 10h 15m
Length of Day
9h 13m
Waning Crescent, 11% of the Moon is Illuminated
Dec 29
Waning Crescent
Jan 1
New
Jan 7
First Quarter
Jan 15
Full
Jan 23
Last Quarter

Hourly Weather History & Observations

Time (CST) Temp. Windchill Dew Point Humidity Pressure Visibility Wind Dir Wind Speed Gust Speed Precip Events Conditions
12:15 AM 39.2 °F 35.0 °F 30.2 °F 70% 29.81 in 10.0 mi WSW 5.8 mph - N/A   Clear
12:35 AM 39.2 °F 33.0 °F 30.2 °F 70% 29.81 in 10.0 mi WSW 9.2 mph - N/A   Clear
12:55 AM 39.2 °F 32.0 °F 30.2 °F 70% 29.82 in 10.0 mi West 11.5 mph 17.3 mph N/A   Clear
1:15 AM 37.4 °F 26.6 °F 30.2 °F 75% 29.83 in 10.0 mi NW 21.9 mph - N/A   Clear
1:35 AM 35.6 °F 25.2 °F 32.0 °F 87% 29.85 in 10.0 mi NW 18.4 mph 25.3 mph N/A   Mostly Cloudy
1:55 AM 33.8 °F 21.9 °F 30.2 °F 87% 29.86 in 10.0 mi NW 21.9 mph 28.8 mph N/A   Overcast
2:15 AM 33.8 °F 23.2 °F 30.2 °F 87% 29.87 in 10.0 mi NW 17.3 mph 26.5 mph N/A   Overcast
2:35 AM 32.0 °F 19.5 °F 30.2 °F 93% 29.88 in 9.0 mi WNW 21.9 mph - N/A   Overcast
2:55 AM 30.2 °F 16.5 °F 28.4 °F 93% 29.89 in 9.0 mi WNW 24.2 mph 32.2 mph N/A   Overcast
3:15 AM 28.4 °F 14.1 °F 26.6 °F 93% 29.90 in 10.0 mi WNW 24.2 mph 31.1 mph N/A   Overcast
3:35 AM 26.6 °F 12.4 °F 24.8 °F 93% 29.91 in 6.0 mi WNW 21.9 mph 32.2 mph N/A   Overcast
3:55 AM 24.8 °F 10.7 °F 23.0 °F 93% 29.92 in 8.0 mi WNW 19.6 mph 27.6 mph N/A   Overcast
4:15 AM 24.8 °F 10.3 °F 23.0 °F 93% 29.93 in 10.0 mi WNW 20.7 mph - N/A   Overcast
4:35 AM 24.8 °F 10.3 °F 21.2 °F 86% 29.93 in 10.0 mi NW 20.7 mph 27.6 mph N/A   Overcast
4:55 AM 24.8 °F 10.7 °F 21.2 °F 86% 29.94 in 10.0 mi NW 19.6 mph - N/A   Overcast
5:15 AM 24.8 °F 10.7 °F 21.2 °F 86% 29.94 in 10.0 mi WNW 19.6 mph 27.6 mph N/A   Overcast
5:35 AM 24.8 °F 10.0 °F 21.2 °F 86% 29.95 in 10.0 mi WNW 21.9 mph 29.9 mph N/A   Overcast
5:55 AM 24.8 °F 10.0 °F 21.2 °F 86% 29.95 in 10.0 mi NW 21.9 mph 28.8 mph N/A   Overcast
6:15 AM 24.8 °F 10.3 °F 21.2 °F 86% 29.95 in 10.0 mi NW 20.7 mph 27.6 mph N/A   Overcast
6:35 AM 24.8 °F 10.0 °F 19.4 °F 80% 29.96 in 10.0 mi NW 21.9 mph 28.8 mph N/A   Overcast
6:55 AM 24.8 °F 9.6 °F 19.4 °F 80% 29.97 in 10.0 mi NW 23.0 mph - N/A   Overcast
7:15 AM 23.0 °F 7.6 °F 19.4 °F 86% 29.98 in 10.0 mi NW 21.9 mph 31.1 mph N/A   Overcast
7:35 AM 23.0 °F 8.0 °F 19.4 °F 86% 29.99 in 10.0 mi NW 20.7 mph 29.9 mph N/A   Overcast
7:55 AM 23.0 °F 8.0 °F 19.4 °F 86% 30.01 in 10.0 mi NW 20.7 mph 28.8 mph N/A   Overcast
8:15 AM 24.8 °F 10.7 °F 19.4 °F 80% 30.01 in 10.0 mi NW 19.6 mph - N/A   Overcast
8:35 AM 24.8 °F 11.9 °F 19.4 °F 80% 30.02 in 10.0 mi NW 16.1 mph 26.5 mph N/A   Overcast
8:55 AM 24.8 °F 9.3 °F 19.4 °F 80% 30.03 in 10.0 mi NNW 24.2 mph 31.1 mph N/A   Overcast
9:15 AM 23.0 °F 6.9 °F 17.6 °F 80% 30.05 in 10.0 mi NW 24.2 mph - N/A   Overcast
9:35 AM 23.0 °F 7.2 °F 17.6 °F 80% 30.06 in 10.0 mi NW 23.0 mph 31.1 mph N/A   Overcast
9:55 AM 23.0 °F 6.9 °F 15.8 °F 74% 30.07 in 10.0 mi NW 24.2 mph 32.2 mph N/A   Overcast
10:15 AM 23.0 °F 8.0 °F 15.8 °F 74% 30.08 in - NNW 20.7 mph 27.6 mph N/A   Overcast
10:35 AM 23.0 °F 7.2 °F 15.8 °F 74% 30.10 in 10.0 mi NNW 23.0 mph - N/A   Overcast
10:55 AM 23.0 °F 7.2 °F 15.8 °F 74% 30.11 in 10.0 mi NW 23.0 mph 29.9 mph N/A   Overcast
11:15 AM 23.0 °F 7.6 °F 14.0 °F 68% 30.11 in 10.0 mi NW 21.9 mph 29.9 mph N/A   Overcast
11:35 AM 21.2 °F 3.9 °F 14.0 °F 74% 30.11 in 10.0 mi NW 26.5 mph 33.4 mph N/A   Overcast
11:55 AM 21.2 °F 4.9 °F 14.0 °F 74% 30.11 in 10.0 mi NW 23.0 mph 32.2 mph N/A Snow Light Snow
12:15 PM 19.4 °F 2.5 °F 12.2 °F 74% 30.12 in 10.0 mi NW 23.0 mph 33.4 mph N/A   Overcast
12:35 PM 19.4 °F 3.6 °F 12.2 °F 74% 30.13 in 10.0 mi NNW 19.6 mph 29.9 mph N/A   Overcast
12:55 PM 19.4 °F 2.1 °F 12.2 °F 74% 30.13 in 10.0 mi NNW 24.2 mph - N/A   Overcast
1:15 PM 19.4 °F 3.2 °F 10.4 °F 68% 30.14 in 10.0 mi NW 20.7 mph 28.8 mph N/A   Overcast
1:35 PM 19.4 °F 4.1 °F 10.4 °F 68% 30.15 in 10.0 mi NNW 18.4 mph 26.5 mph N/A   Overcast
1:55 PM 19.4 °F 5.0 °F 12.2 °F 74% 30.15 in 10.0 mi NW 16.1 mph - N/A Snow Light Snow
2:15 PM 17.6 °F 1.7 °F 12.2 °F 79% 30.16 in 6.0 mi WNW 18.4 mph 25.3 mph N/A Snow Light Snow
2:35 PM 17.6 °F 0.1 °F 10.4 °F 73% 30.17 in 10.0 mi WNW 23.0 mph - N/A Snow Light Snow
2:55 PM 15.8 °F -1.5 °F 8.6 °F 73% 30.18 in 10.0 mi NW 20.7 mph 26.5 mph N/A Snow Light Snow
3:15 PM 15.8 °F -1.5 °F 8.6 °F 73% 30.19 in 9.0 mi WNW 20.7 mph - N/A Snow Light Snow
3:35 PM 14.0 °F -3.9 °F 8.6 °F 79% 30.20 in 10.0 mi WNW 20.7 mph - N/A Snow Light Snow
3:55 PM 14.0 °F -3.0 °F 6.8 °F 73% 30.21 in 10.0 mi NW 18.4 mph 26.5 mph N/A   Overcast
4:15 PM 12.2 °F -4.3 °F 6.8 °F 79% 30.22 in 10.0 mi NW 16.1 mph 23.0 mph N/A   Overcast
4:35 PM 12.2 °F -4.3 °F 5.0 °F 73% 30.23 in 10.0 mi WNW 16.1 mph - N/A   Mostly Cloudy
4:55 PM 10.4 °F -6.6 °F 5.0 °F 79% 30.24 in 10.0 mi WNW 16.1 mph 25.3 mph N/A   Mostly Cloudy
5:15 PM 10.4 °F -6.0 °F 3.2 °F 73% 30.25 in 10.0 mi WNW 15.0 mph 24.2 mph N/A   Overcast
5:35 PM 8.6 °F -8.3 °F 1.4 °F 73% 30.25 in 10.0 mi NW 15.0 mph 21.9 mph N/A   Mostly Cloudy
5:55 PM 8.6 °F -7.7 °F 1.4 °F 73% 30.27 in 10.0 mi WNW 13.8 mph 20.7 mph N/A   Scattered Clouds
6:15 PM 6.8 °F -9.3 °F 1.4 °F 79% 30.27 in 10.0 mi WNW 12.7 mph 20.7 mph N/A   Partly Cloudy
6:35 PM 6.8 °F -10.7 °F -0.4 °F 72% 30.28 in 10.0 mi NW 15.0 mph - N/A   Clear
6:55 PM 6.8 °F -10.0 °F -0.4 °F 72% 30.28 in 10.0 mi NW 13.8 mph - N/A   Clear
7:15 PM 6.8 °F -10.0 °F -0.4 °F 72% 30.28 in 10.0 mi NW 13.8 mph - N/A   Clear
7:35 PM 6.8 °F -8.6 °F -2.2 °F 67% 30.29 in - NW 11.5 mph - N/A   Clear
7:55 PM 5.0 °F -10.0 °F -2.2 °F 72% 30.29 in 10.0 mi NW 10.4 mph 18.4 mph N/A   Clear
8:15 PM 5.0 °F -13.0 °F -2.2 °F 72% 30.29 in 10.0 mi NW 15.0 mph - N/A   Clear
8:35 PM 5.0 °F -11.6 °F -4.0 °F 66% 30.30 in 10.0 mi NW 12.7 mph - N/A   Clear
8:55 PM 5.0 °F -11.6 °F -4.0 °F 66% 30.30 in 10.0 mi NW 12.7 mph - N/A   Clear
9:15 PM 5.0 °F -10.8 °F -4.0 °F 66% 30.31 in 10.0 mi NW 11.5 mph - N/A   Clear
9:35 PM 3.2 °F -11.3 °F -4.0 °F 72% 30.31 in 10.0 mi NW 9.2 mph - N/A   Clear
9:55 PM 3.2 °F -12.2 °F -4.0 °F 72% 30.32 in 10.0 mi NW 10.4 mph - N/A   Clear
10:15 PM 3.2 °F -12.2 °F -4.0 °F 72% 30.32 in 10.0 mi NW 10.4 mph - N/A   Clear
10:35 PM 3.2 °F -10.3 °F -4.0 °F 72% 30.33 in 10.0 mi NW 8.1 mph - N/A   Clear
10:55 PM 3.2 °F -10.3 °F -5.8 °F 66% 30.33 in 10.0 mi NNW 8.1 mph - N/A   Clear
11:15 PM 3.2 °F -11.3 °F -5.8 °F 66% 30.33 in 10.0 mi NW 9.2 mph - N/A   Clear
11:35 PM 1.4 °F -12.5 °F -5.8 °F 72% 30.33 in 10.0 mi NNW 8.1 mph - N/A   Clear
11:55 PM 1.4 °F -13.5 °F -7.6 °F 66% 30.33 in 10.0 mi NNW 9.2 mph - N/A   Clear